Hourly Weather Maidstone

Today, 8 August, Saturday

Time Temperature Precipitation Wind Pressure Humidity
00:00 +25°C° 0 mm 1 mps 761 mmHg 49%
01:00 +25°C° 0 mm 1 mps 761 mmHg 50%
02:00 +24°C° 0 mm 1 mps 761 mmHg 51%
03:00 +24°C° 0 mm 1 mps 761 mmHg 52%
04:00 +24°C° 0 mm 1 mps 761 mmHg 53%
05:00 +25°C° 0 mm 1 mps 761 mmHg 54%
06:00 +25°C° 0 mm 1 mps 761 mmHg 55%
07:00 +27°C° 0 mm 1 mps 761 mmHg 50%
08:00 +29°C° 0 mm 1 mps 761 mmHg 46%
09:00 +30°C° 0 mm 2 mps 762 mmHg 41%
10:00 +32°C° 0 mm 2 mps 762 mmHg 38%
11:00 +34°C° 0 mm 2 mps 762 mmHg 35%
12:00 +35°C° 0 mm 3 mps 761 mmHg 33%
13:00 +35°C° 0 mm 3 mps 761 mmHg 34%
14:00 +34°C° 0 mm 3 mps 761 mmHg 35%
15:00 +34°C° 0 mm 3 mps 761 mmHg 36%
16:00 +33°C° 0 mm 4 mps 761 mmHg 39%
17:00 +30°C° 0 mm 4 mps 761 mmHg 43%
18:00 +29°C° 0 mm 4 mps 760 mmHg 47%
19:00 +28°C° 0.1 mm 4 mps 761 mmHg 51%
20:00 +26°C° 0.1 mm 4 mps 761 mmHg 56%
21:00 +25°C° 0.1 mm 4 mps 761 mmHg 61%
22:00 +23°C° 0.5 mm 4 mps 761 mmHg 66%
23:00 +22°C° 0.5 mm 3 mps 760 mmHg 71%

Tomorrow, 9 August, Sunday

Time Temperature Precipitation Wind Pressure Humidity
00:00 +22°C° 0.5 mm 3 mps 760 mmHg 76%
01:00 +21°C° 0.7 mm 3 mps 760 mmHg 78%
02:00 +21°C° 0.7 mm 4 mps 760 mmHg 80%
03:00 +21°C° 0.7 mm 4 mps 760 mmHg 83%
04:00 +21°C° 0.2 mm 4 mps 760 mmHg 82%
05:00 +21°C° 0.2 mm 3 mps 759 mmHg 81%
06:00 +21°C° 0.2 mm 3 mps 759 mmHg 81%
07:00 +24°C° 0.1 mm 3 mps 759 mmHg 75%
08:00 +26°C° 0.1 mm 3 mps 759 mmHg 68%
09:00 +27°C° 0.1 mm 3 mps 759 mmHg 62%
10:00 +28°C° 0 mm 3 mps 759 mmHg 57%
11:00 +30°C° 0 mm 3 mps 759 mmHg 53%
12:00 +31°C° 0 mm 3 mps 759 mmHg 48%
13:00 +32°C° 0 mm 4 mps 758 mmHg 48%
14:00 +32°C° 0 mm 4 mps 758 mmHg 48%
15:00 +32°C° 0 mm 4 mps 758 mmHg 47%
16:00 +30°C° 0 mm 4 mps 758 mmHg 51%
17:00 +29°C° 0 mm 3 mps 758 mmHg 56%
18:00 +27°C° 0 mm 3 mps 757 mmHg 60%
19:00 +26°C° 0 mm 2 mps 757 mmHg 68%
20:00 +24°C° 0 mm 2 mps 758 mmHg 75%
21:00 +22°C° 0 mm 1 mps 758 mmHg 83%
22:00 +20°C° 0 mm 2 mps 758 mmHg 85%
23:00 +20°C° 0 mm 2 mps 757 mmHg 87%

Day after tomorrow, 10 August, Monday

Time Temperature Precipitation Wind Pressure Humidity
00:00 +20°C° 0 mm 3 mps 757 mmHg 89%
01:00 +19°C° 0 mm 2 mps 757 mmHg 89%
02:00 +19°C° 0 mm 2 mps 757 mmHg 90%
03:00 +19°C° 0 mm 2 mps 757 mmHg 91%
04:00 +19°C° 0 mm 2 mps 757 mmHg 89%
05:00 +21°C° 0 mm 1 mps 757 mmHg 88%
06:00 +22°C° 0 mm 1 mps 757 mmHg 86%
07:00 +24°C° 0 mm 1 mps 757 mmHg 79%
08:00 +26°C° 0 mm 1 mps 757 mmHg 72%
09:00 +28°C° 0 mm 1 mps 757 mmHg 65%
10:00 +29°C° 0 mm 1 mps 757 mmHg 59%
11:00 +30°C° 0 mm 2 mps 757 mmHg 53%
12:00 +32°C° 0 mm 2 mps 757 mmHg 47%
13:00 +32°C° 0 mm 2 mps 757 mmHg 47%
14:00 +33°C° 0 mm 3 mps 757 mmHg 46%
15:00 +33°C° 0 mm 4 mps 757 mmHg 46%
16:00 +30°C° 0.2 mm 3 mps 757 mmHg 51%
17:00 +29°C° 0.2 mm 3 mps 757 mmHg 56%
18:00 +28°C° 0.2 mm 3 mps 757 mmHg 61%
19:00 +27°C° 0.1 mm 2 mps 757 mmHg 65%
20:00 +26°C° 0.1 mm 2 mps 757 mmHg 69%
21:00 +25°C° 0.1 mm 2 mps 758 mmHg 73%
22:00 +24°C° 0.1 mm 2 mps 758 mmHg 76%
23:00 +24°C° 0.1 mm 2 mps 758 mmHg 78%

11 August, Tuesday

Time Temperature Precipitation Wind Pressure Humidity
00:00 +23°C° 0.1 mm 2 mps 758 mmHg 81%
01:00 +23°C° 0 mm 2 mps 758 mmHg 83%
02:00 +22°C° 0 mm 1 mps 758 mmHg 86%
03:00 +21°C° 0 mm 1 mps 758 mmHg 88%
04:00 +22°C° 0 mm 1 mps 758 mmHg 87%
05:00 +22°C° 0 mm 1 mps 758 mmHg 86%
06:00 +22°C° 0 mm 1 mps 758 mmHg 84%
07:00 +24°C° 0 mm 2 mps 758 mmHg 78%
08:00 +25°C° 0 mm 2 mps 758 mmHg 71%
09:00 +26°C° 0 mm 2 mps 759 mmHg 64%
10:00 +28°C° 0 mm 2 mps 759 mmHg 60%
11:00 +29°C° 0 mm 2 mps 759 mmHg 55%
12:00 +30°C° 0 mm 2 mps 759 mmHg 50%
13:00 +30°C° 0 mm 3 mps 759 mmHg 52%
14:00 +29°C° 0 mm 3 mps 759 mmHg 54%
15:00 +29°C° 0 mm 4 mps 759 mmHg 56%
16:00 +28°C° 0 mm 4 mps 759 mmHg 61%
17:00 +27°C° 0 mm 4 mps 759 mmHg 67%
18:00 +26°C° 0 mm 4 mps 759 mmHg 72%
19:00 +23°C° 0 mm 4 mps 759 mmHg 77%
20:00 +22°C° 0 mm 4 mps 759 mmHg 83%
21:00 +21°C° 0 mm 4 mps 759 mmHg 89%
22:00 +20°C° 0 mm 4 mps 759 mmHg 91%
23:00 +20°C° 0 mm 4 mps 760 mmHg 92%

12 August, Wednesday

Time Temperature Precipitation Wind Pressure Humidity
00:00 +20°C° 0 mm 3 mps 760 mmHg 93%
01:00 +19°C° 0 mm 4 mps 760 mmHg 94%
02:00 +19°C° 0 mm 4 mps 759 mmHg 94%
03:00 +19°C° 0 mm 4 mps 759 mmHg 95%
04:00 +19°C° 0 mm 4 mps 759 mmHg 93%
05:00 +19°C° 0 mm 5 mps 759 mmHg 92%
06:00 +19°C° 0 mm 5 mps 759 mmHg 90%
07:00 +20°C° 0.1 mm 5 mps 759 mmHg 87%
08:00 +20°C° 0.1 mm 5 mps 760 mmHg 84%
09:00 +21°C° 0.1 mm 6 mps 760 mmHg 81%
10:00 +22°C° 0.3 mm 6 mps 760 mmHg 79%
11:00 +22°C° 0.3 mm 6 mps 759 mmHg 76%
12:00 +23°C° 0.3 mm 6 mps 759 mmHg 74%
13:00 +22°C° 1.1 mm 6 mps 759 mmHg 78%
14:00 +21°C° 1.1 mm 6 mps 759 mmHg 82%
15:00 +20°C° 1.1 mm 5 mps 759 mmHg 87%
16:00 +20°C° 1.2 mm 6 mps 759 mmHg 87%
17:00 +20°C° 1.2 mm 6 mps 758 mmHg 87%
18:00 +20°C° 1.2 mm 6 mps 758 mmHg 87%
19:00 +18°C° 5 mm 7 mps 758 mmHg 89%
20:00 +17°C° 5 mm 8 mps 759 mmHg 91%
21:00 +17°C° 5 mm 9 mps 759 mmHg 92%
22:00 +17°C° 1 mm 8 mps 759 mmHg 93%
23:00 +17°C° 1 mm 7 mps 758 mmHg 93%

13 August, Thursday

Time Temperature Precipitation Wind Pressure Humidity
00:00 +17°C° 1 mm 5 mps 758 mmHg 94%
01:00 +17°C° 0.8 mm 5 mps 758 mmHg 94%
02:00 +17°C° 0.8 mm 5 mps 758 mmHg 95%
03:00 +19°C° 0.8 mm 5 mps 758 mmHg 95%
04:00 +19°C° 0.3 mm 5 mps 758 mmHg 95%
05:00 +19°C° 0.3 mm 5 mps 758 mmHg 95%
06:00 +19°C° 0.3 mm 5 mps 758 mmHg 95%
07:00 +19°C° 0.2 mm 5 mps 758 mmHg 94%
08:00 +19°C° 0.2 mm 5 mps 758 mmHg 94%
09:00 +19°C° 0.2 mm 4 mps 758 mmHg 93%
10:00 +20°C° 0.1 mm 4 mps 759 mmHg 92%
11:00 +20°C° 0.1 mm 4 mps 759 mmHg 91%
12:00 +20°C° 0.1 mm 4 mps 759 mmHg 91%
13:00 +20°C° 0.1 mm 4 mps 759 mmHg 89%
14:00 +20°C° 0.1 mm 5 mps 759 mmHg 87%
15:00 +21°C° 0.1 mm 5 mps 758 mmHg 85%
16:00 +20°C° 0 mm 5 mps 758 mmHg 86%
17:00 +20°C° 0 mm 5 mps 759 mmHg 86%
18:00 +19°C° 0 mm 5 mps 759 mmHg 86%
19:00 +19°C° 0 mm 5 mps 759 mmHg 87%
20:00 +19°C° 0 mm 5 mps 759 mmHg 88%
21:00 +17°C° 0 mm 5 mps 759 mmHg 89%
22:00 +17°C° 0.1 mm 5 mps 759 mmHg 90%
23:00 +17°C° 0.1 mm 5 mps 759 mmHg 90%
Show more